Weather Roundup
Issued by NWS

Home | Current Version | Previous Version | Graphics & Text | Print | Product List | Glossary Off
Versions: 1 2 3 4 5 6 7 8 9 10 11 12 13 14 15 16 17 18 19 20 21 22 23 24 25 26 27 28 29 30 31 32 33 34 35 36 37 38 39 40 41 42 43 44 45 46 47 48 49 50

000
NZUS93 KARX 250910
HRRWXR

CURRENT HOURLY OBSERVATIONS ACROSS
MUCH OF THE UPPER MISSISSIPPI VALLEY
NATIONAL WEATHER SERVICE LA CROSSE WI
400 AM CDT FRI JUL 25 2014


...SOUTHEAST MINNESOTA...


CITY           SKY/WX    TMP DP  RH WIND       PRES   REMARKS
ROCHESTER      CLOUDY    65  57  75 S13       29.94S
ROCHESTER/MAYO CLOUDY    66  56  70 S13G20    29.92F
WINONA         LGT RAIN  70  61  73 SE3       29.94R
AUSTIN         TSTM      64  59  82 S15       29.93F
ALBERT LEA     LGT RAIN  66  61  82 SE18G24   29.88F
DODGE CENTER   CLOUDY    64  61  88 SE13      29.91F
PRESTON        CLOUDY    64  61  88 S9G20     29.97R
OWATONNA       CLOUDY    68  57  68 SE15G24   29.85F
FARIBAULT      CLOUDY    70  57  64 SE12      29.84F
$$

...ELSEWHERE IN MINNESOTA...


CITY           SKY/WX    TMP DP  RH WIND       PRES   REMARKS
MINNEAPOLIS    CLOUDY    67  59  75 SE10      29.86F
INTNL FALLS    LGT RAIN  60  58  92 CALM      29.83S
DULUTH         CLOUDY    62  57  83 SE6       29.88R
RED WING       CLOUDY    70  59  68 CALM      29.88F
REDWOOD FALLS  TSTM      65  63  93 SE7       29.85R
MANKATO        CLOUDY    66  57  72 SE17G23   29.80F
WORTHINGTON    CLOUDY    64  63  94 S10       29.89R
FAIRMONT       CLOUDY    64  61  88 E9        29.82R
$$

...SOUTHWEST WISCONSIN...


CITY           SKY/WX    TMP DP  RH WIND       PRES   REMARKS
LA CROSSE      CLOUDY    69  59  70 S9        29.95R
PRAIRIE DU CHI CLOUDY    65  56  73 SE7       29.97S
BOSCOBEL       MOCLDY    61  58  90 S3        29.99R
LONE ROCK      MOCLDY    67  57  70 CALM      29.99F
PLATTEVILLE    MOCLDY    61  56  85 SE7       30.01S
FORT MC COY    PTCLDY    65  56  74 S5        29.96R
CAMP DOUGLAS   PTCLDY    63  60  88 S8        29.97S
VIROQUA        PTSUNNY   63  58  84 S8        29.98F
WIS DELLS      CLEAR     61  54  77 S7        29.99R
$$

...ELSEWHERE IN WISCONSIN...


CITY           SKY/WX    TMP DP  RH WIND       PRES   REMARKS
MILWAUKEE      PTCLDY    60  45  57 SW10      30.03F
MADISON        CLEAR     64  51  62 S12       30.02R
GREEN BAY      CLOUDY    60  50  69 S7        29.96F
EAU CLAIRE     CLOUDY    67  60  78 S8        29.92R
BLACK RVR FLS  FAIR      58  58  99 CALM      29.95R
MEDFORD        MOCLDY    61  58  90 S6        29.96R
WAUSAU         PTCLDY    63  58  83 S7        29.95S
WIS RAPIDS     PTCLDY    62  57  83 S8        29.98R
MARSHFIELD     MOCLDY    62  58  86 SW7       29.96R
RICE LAKE      CLOUDY    64  58  82 S8        29.92S
$$

...NORTHEAST IOWA...


CITY           SKY/WX    TMP DP  RH WIND       PRES   REMARKS
WATERLOO       LGT RAIN  65  58  78 S12       29.96S
DUBUQUE        PTCLDY    60  57  89 S8        30.00S
DECORAH        LGT RAIN  63  59  88 S7        29.98R
MASON CITY     LGT RAIN  63  62  97 S28G40    29.83F
CHARLES CITY   LGT RAIN  64  59  82 S12G17    29.99S
OELWEIN        CLOUDY    64  59  82 S9        30.01R
$$

...ELSEWHERE IN IOWA...


CITY           SKY/WX    TMP DP  RH WIND       PRES   REMARKS
DES MOINES     CLOUDY    66  61  84 E12       29.93S
IOWA CITY      CLOUDY    64  58  80 CALM      30.04R
FORT DODGE     CLOUDY    64  61  88 E20       29.93R
MARSHALLTOWN   LGT RAIN  63  60  90 S9        29.99F
CEDAR RAPIDS   CLOUDY    64  57  78 S6        30.00R
$$

...NORTHERN ILLINOIS...


CITY           SKY/WX    TMP DP  RH WIND       PRES   REMARKS
CHICAGO-OHARE  CLEAR     56  48  74 S5        30.04F
DUPAGE         CLEAR     53  50  89 SW3       30.05F
CHICAGO-MIDWAY PTCLDY    61  51  70 S6        30.04F
MOLINE         PTCLDY    61  55  81 SE8       30.00R
ROCKFORD       MOCLDY    58  49  72 S3        30.08R
STERLING       CLEAR     57  52  82 SE6       30.03S
PEORIA         CLEAR     64  53  67 SE5       30.04S
$$

NOTE: "FAIR" INDICATES FEW OR NO CLOUDS BELOW 12,000 FEET WITH NO
SIGNIFICANT WEATHER AND/OR OBSTRUCTIONS TO VISIBILITY. WIND
SPEEDS ARE IN MILES-PER-HOUR.



USA.gov is the U.S. government's official web portal to all federal, state and local government web resources and services.